Powrót do katalogu

COSMOS 1486

AktywnyMilitariaLEO
NORAD 14240·PAYLOAD·🇷🇺 Russia

Wystrzelony Aug 3, 1983 z Plesetsk Cosmodrome

Loading…

Następne Przeloty (najbliższe 24 godziny)

TLE

ŚwieżeSource: Space-Track

Epoka: Sep 14, 2026, 10:49 UTC

1 14240U 83079A   26257.45089660  .00000062  00000-0  30796-4 0  9995
2 14240  74.0545 247.6529 0012844 146.6943  14.9907 14.34889097254559

Śledź COSMOS 1486 w czasie rzeczywistym z AllMySat

Download on the App Store